Location: Unspecified
(40.9431°N, 0.0000°E)
Time: 04:47:40
(UTC+00:00)

Sep Motor Cover - Visible Passes

Search period start: 04 April 2026 00:00
Search period end: 14 April 2026 00:00
Orbit: 838 x 1151 km, 71.0° (Epoch: 29 March)

Date Brightness Start Highest point End Pass type
(mag) Time Alt. Az. Time Alt. Az. Time Alt. Az.
4 Apr ? 02:35:32 51° ESE 02:36:00 52° ESE 02:42:03 10° NNE visible
4 Apr ? 04:20:38 20° W 04:23:38 28° NW 04:28:54 10° N visible
5 Apr ? 01:21:32 16° E 01:21:32 16° E 01:24:26 10° ENE visible
5 Apr ? 03:06:37 68° SW 03:07:24 78° WNW 03:13:36 10° NNE visible
5 Apr ? 04:52:15 10° W 04:55:44 15° NW 04:59:06 10° NNW visible
6 Apr ? 01:52:34 34° E 01:52:34 34° E 01:57:17 10° NE visible
6 Apr ? 03:37:38 35° W 03:39:01 39° WNW 03:44:44 10° N visible
7 Apr ? 02:23:32 70° ENE 02:23:32 70° ENE 02:29:08 10° NNE visible
7 Apr ? 04:08:37 17° WNW 04:10:56 20° NW 04:15:22 10° N visible
8 Apr ? 01:09:23 21° ENE 01:09:23 21° ENE 01:12:19 10° NE visible
8 Apr ? 02:54:28 54° WNW 02:54:29 54° WNW 03:00:28 10° NNE visible
8 Apr ? 04:42:33 10° NW 04:43:13 10° NW 04:43:54 10° NW visible
9 Apr ? 01:40:16 41° ENE 01:40:16 41° ENE 01:44:32 10° NNE visible
9 Apr ? 03:25:20 27° WNW 03:26:14 27° NW 03:31:21 10° N visible
10 Apr ? 00:26:04 12° ENE 00:26:04 12° ENE 00:26:56 10° ENE visible
10 Apr ? 02:11:07 60° N 02:11:07 60° N 02:16:05 10° NNE visible
10 Apr ? 03:56:10 12° WNW 03:58:19 14° NW 04:01:28 10° NNW visible
11 Apr ? 00:56:52 26° ENE 00:56:52 26° ENE 00:59:47 10° NE visible
11 Apr ? 02:41:55 38° NW 02:41:55 38° NW 02:47:12 10° N visible
12 Apr ? 01:27:38 44° NE 01:27:38 44° NE 01:31:37 10° NNE visible
12 Apr ? 03:12:41 19° WNW 03:13:31 20° NW 03:17:47 10° N visible
13 Apr ? 00:13:19 16° ENE 00:13:19 16° ENE 00:14:49 10° NE visible
13 Apr ? 01:58:22 45° NNW 01:58:22 45° NNW 02:02:56 10° NNE visible
